This is the latest recevied weather packets stored in our database for station/object KO4ZGL-13. If no packets are shown the sender has not sent any weather packets the latest 10 day(s).
| Time | Temp. | Humidity | Pressure | Rain* | Wind** | Luminosity | Snow |
|---|---|---|---|---|---|---|---|
| 1778099411 | 31.11° C | 54% | 1013.9 hPa | 0 mm | - | 481 W/m² | - |
| 1778099108 | 31.11° C | 53% | 1013.9 hPa | 0 mm | - | 514 W/m² | - |
| 1778098804 | 30.56° C | 54% | 1014.3 hPa | 0 mm | - | 515 W/m² | - |
| 1778098503 | 31.11° C | 53% | 1014.3 hPa | 0 mm | - | 522 W/m² | - |
| 1778098199 | 30.56° C | 55% | 1014.3 hPa | 0 mm | - | 524 W/m² | - |
| 1778097895 | 30.56° C | 55% | 1014.4 hPa | 0 mm | - | 541 W/m² | - |
| 1778097591 | 30.56° C | 53% | 1014.2 hPa | 0 mm | - | 547 W/m² | - |
| 1778097289 | 30.56° C | 55% | 1014.1 hPa | 0 mm | - | 531 W/m² | - |
| 1778096985 | 31.11° C | 53% | 1014.4 hPa | 0 mm | - | 570 W/m² | - |
| 1778096683 | 31.11° C | 54% | 1014.5 hPa | 0 mm | - | 563 W/m² | - |
| 1778096379 | 31.11° C | 55% | 1014.4 hPa | 0 mm | - | 543 W/m² | - |
| 1778096076 | 31.11° C | 55% | 1014.6 hPa | 0 mm | - | 544 W/m² | - |
| 1778095773 | 30° C | 55% | 1014.7 hPa | 0 mm | - | 593 W/m² | - |
| 1778095470 | 30° C | 56% | 1015 hPa | 0 mm | - | 637 W/m² | - |
| 1778095166 | 30° C | 55% | 1015.1 hPa | 0 mm | - | 599 W/m² | - |
| 1778094862 | 30° C | 54% | 1014.9 hPa | 0 mm | - | 625 W/m² | - |
| 1778094554 | 30° C | 56% | 1015.2 hPa | 0 mm | - | 568 W/m² | - |
| 1778094251 | 30° C | 56% | 1015.4 hPa | 0 mm | - | 603 W/m² | - |
| 1778093948 | 30° C | 56% | 1015.3 hPa | 0 mm | - | 543 W/m² | - |
| 1778093645 | 29.44° C | 58% | 1015.4 hPa | 0 mm | - | 456 W/m² | - |
| 1778093342 | 29.44° C | 57% | 1015.5 hPa | 0 mm | - | 369 W/m² | - |
| 1778093039 | 29.44° C | 57% | 1015.7 hPa | 0 mm | - | 629 W/m² | - |
| 1778092736 | 29.44° C | 56% | 1015.5 hPa | 0 mm | - | 317 W/m² | - |
| 1778092431 | 29.44° C | 56% | 1015.5 hPa | 0 mm | - | 687 W/m² | - |
| 1778092129 | 30.56° C | 55% | 1015.8 hPa | 0 mm | - | 590 W/m² | - |
* Rain latest hour (hover to see other rain measurements)
** Current wind speed in m/s (hover to see current wind gust speed)